Time,TemperatureF,DewpointF,PressureIn,WindDirection,WindDirectionDegrees,WindSpeedMPH,WindSpeedGustMPH,Humidity,HourlyPrecipIn,Conditions,Clouds,dailyrainin,SoftwareType,DateUTC
2017-05-27 00:01:00,50.6,47.0,29.93,North,355,0.0,0.0,88,0.00,,,0.00,weatherlink.com 1.10,2017-05-27 07:01:00,
2017-05-27 00:16:00,50.5,47.0,29.93,North,355,0.0,0.0,88,0.00,,,0.00,weatherlink.com 1.10,2017-05-27 07:16:00,
2017-05-27 00:31:00,50.6,48.0,29.93,North,355,0.0,0.0,89,0.00,,,0.00,weatherlink.com 1.10,2017-05-27 07:31:00,
2017-05-27 00:46:00,50.6,48.0,29.93,North,355,0.0,0.0,89,0.00,,,0.00,weatherlink.com 1.10,2017-05-27 07:46:00,
2017-05-27 01:01:00,50.3,47.0,29.93,North,355,0.0,0.0,88,0.00,,,0.00,weatherlink.com 1.10,2017-05-27 08:01:00,
2017-05-27 01:16:00,50.0,47.0,29.94,North,355,0.0,0.0,88,0.00,,,0.00,weatherlink.com 1.10,2017-05-27 08:16:00,
2017-05-27 01:31:00,49.8,47.0,29.94,North,355,0.0,0.0,89,0.00,,,0.00,weatherlink.com 1.10,2017-05-27 08:31:00,
2017-05-27 01:46:00,49.6,47.0,29.93,North,355,0.0,0.0,89,0.00,,,0.00,weatherlink.com 1.10,2017-05-27 08:46:00,
2017-05-27 02:02:00,49.4,47.0,29.93,North,355,0.0,0.0,90,0.00,,,0.00,weatherlink.com 1.10,2017-05-27 09:02:00,
2017-05-27 02:16:00,49.2,47.0,29.93,North,355,0.0,0.0,90,0.00,,,0.00,weatherlink.com 1.10,2017-05-27 09:16:00,
2017-05-27 02:31:00,49.2,47.0,29.93,North,355,0.0,0.0,91,0.00,,,0.00,weatherlink.com 1.10,2017-05-27 09:31:00,
2017-05-27 02:46:00,49.0,47.0,29.93,North,355,0.0,0.0,91,0.00,,,0.00,weatherlink.com 1.10,2017-05-27 09:46:00,
2017-05-27 03:01:00,48.8,46.0,29.93,North,355,0.0,0.0,91,0.00,,,0.00,weatherlink.com 1.10,2017-05-27 10:01:00,
2017-05-27 03:17:00,48.6,46.0,29.93,North,355,0.0,0.0,91,0.00,,,0.00,weatherlink.com 1.10,2017-05-27 10:17:00,
2017-05-27 03:31:00,48.4,46.0,29.93,North,355,0.0,0.0,91,0.00,,,0.00,weatherlink.com 1.10,2017-05-27 10:31:00,
2017-05-27 03:46:00,48.2,46.0,29.93,North,355,0.0,0.0,91,0.00,,,0.00,weatherlink.com 1.10,2017-05-27 10:46:00,
2017-05-27 04:02:00,48.1,46.0,29.93,North,355,0.0,0.0,91,0.00,,,0.00,weatherlink.com 1.10,2017-05-27 11:02:00,
2017-05-27 04:17:00,48.1,46.0,29.93,North,355,0.0,0.0,91,0.00,,,0.00,weatherlink.com 1.10,2017-05-27 11:17:00,
2017-05-27 04:47:00,48.0,46.0,29.93,North,355,0.0,0.0,91,0.00,,,0.00,weatherlink.com 1.10,2017-05-27 11:47:00,
2017-05-27 05:02:00,48.0,46.0,29.93,North,355,0.0,0.0,91,0.00,,,0.00,weatherlink.com 1.10,2017-05-27 12:02:00,
2017-05-27 05:17:00,48.1,46.0,29.93,North,355,0.0,0.0,92,0.00,,,0.00,weatherlink.com 1.10,2017-05-27 12:17:00,
2017-05-27 05:32:00,48.2,46.0,29.93,North,355,0.0,0.0,92,0.00,,,0.00,weatherlink.com 1.10,2017-05-27 12:32:00,
2017-05-27 05:47:00,48.2,46.0,29.94,North,355,0.0,0.0,92,0.00,,,0.00,weatherlink.com 1.10,2017-05-27 12:47:00,
2017-05-27 06:02:00,48.2,46.0,29.94,North,355,0.0,0.0,92,0.00,,,0.00,weatherlink.com 1.10,2017-05-27 13:02:00,
2017-05-27 06:17:00,48.4,46.0,29.95,North,355,0.0,0.0,92,0.00,,,0.00,weatherlink.com 1.10,2017-05-27 13:17:00,
2017-05-27 06:32:00,48.5,46.0,29.95,North,355,0.0,0.0,92,0.00,,,0.00,weatherlink.com 1.10,2017-05-27 13:32:00,
2017-05-27 06:47:00,48.6,46.0,29.96,North,355,0.0,0.0,92,0.00,,,0.00,weatherlink.com 1.10,2017-05-27 13:47:00,
2017-05-27 07:02:00,48.9,47.0,29.96,North,355,0.0,0.0,93,0.00,,,0.00,weatherlink.com 1.10,2017-05-27 14:02:00,
2017-05-27 07:17:00,49.6,48.0,29.95,North,355,0.0,0.0,93,0.00,,,0.00,weatherlink.com 1.10,2017-05-27 14:17:00,
2017-05-27 07:32:00,50.4,49.0,29.95,North,355,0.0,0.0,93,0.00,,,0.00,weatherlink.com 1.10,2017-05-27 14:32:00,
2017-05-27 07:47:00,51.2,49.0,29.95,North,355,0.0,0.0,91,0.00,,,0.00,weatherlink.com 1.10,2017-05-27 14:47:00,
2017-05-27 08:02:00,52.0,49.0,29.95,North,355,0.0,0.0,89,0.00,,,0.00,weatherlink.com 1.10,2017-05-27 15:02:00,
2017-05-27 08:17:00,52.7,49.0,29.96,North,355,0.0,0.0,87,0.00,,,0.00,weatherlink.com 1.10,2017-05-27 15:17:00,
2017-05-27 08:32:00,53.4,49.0,29.96,North,355,0.0,0.0,86,0.00,,,0.00,weatherlink.com 1.10,2017-05-27 15:32:00,
2017-05-27 08:47:00,54.3,50.0,29.97,North,355,0.0,0.0,85,0.00,,,0.00,weatherlink.com 1.10,2017-05-27 15:47:00,
2017-05-27 09:17:00,55.6,50.0,29.97,North,355,0.0,0.0,81,0.00,,,0.00,weatherlink.com 1.10,2017-05-27 16:17:00,
2017-05-27 09:32:00,56.4,50.0,29.98,North,355,0.0,0.0,80,0.00,,,0.00,weatherlink.com 1.10,2017-05-27 16:32:00,
2017-05-27 09:47:00,57.3,51.0,29.98,North,355,0.0,0.0,78,0.00,,,0.00,weatherlink.com 1.10,2017-05-27 16:47:00,
2017-05-27 10:02:00,58.0,50.0,29.98,North,355,0.0,0.0,76,0.00,,,0.00,weatherlink.com 1.10,2017-05-27 17:02:00,
2017-05-27 10:17:00,59.0,51.0,29.98,NNE,21,0.0,0.0,75,0.03,,,0.03,weatherlink.com 1.10,2017-05-27 17:17:00,
2017-05-27 10:32:00,60.4,52.0,29.99,NNE,21,0.0,0.0,73,0.03,,,0.03,weatherlink.com 1.10,2017-05-27 17:32:00,
2017-05-27 10:47:00,61.5,52.0,29.99,NNE,20,0.0,0.0,71,0.03,,,0.03,weatherlink.com 1.10,2017-05-27 17:47:00,
2017-05-27 11:02:00,62.7,52.0,29.99,NNE,19,0.0,0.0,69,0.03,,,0.03,weatherlink.com 1.10,2017-05-27 18:02:00,
2017-05-27 11:17:00,63.9,53.0,29.99,NNE,19,0.0,0.0,67,0.00,,,0.03,weatherlink.com 1.10,2017-05-27 18:17:00,
2017-05-27 11:33:00,65.2,53.0,29.99,NNE,19,0.0,0.0,64,0.00,,,0.03,weatherlink.com 1.10,2017-05-27 18:33:00,
2017-05-27 11:48:00,65.6,53.0,29.99,NNE,20,0.0,0.0,65,0.00,,,0.03,weatherlink.com 1.10,2017-05-27 18:48:00,
2017-05-27 12:03:00,65.9,54.0,29.99,NNE,19,0.0,0.0,65,0.00,,,0.03,weatherlink.com 1.10,2017-05-27 19:03:00,
2017-05-27 12:18:00,67.0,53.0,29.99,NNE,20,0.0,0.0,61,0.00,,,0.03,weatherlink.com 1.10,2017-05-27 19:18:00,
2017-05-27 12:33:00,66.7,54.0,29.99,NNE,20,0.0,0.0,64,0.00,,,0.03,weatherlink.com 1.10,2017-05-27 19:33:00,
2017-05-27 12:48:00,67.6,53.0,29.99,NNE,20,0.0,0.0,59,0.00,,,0.03,weatherlink.com 1.10,2017-05-27 19:48:00,
2017-05-27 13:03:00,68.5,53.0,29.99,NNE,20,0.0,0.0,59,0.00,,,0.03,weatherlink.com 1.10,2017-05-27 20:03:00,
2017-05-27 13:18:00,69.5,54.0,29.99,NNE,20,0.0,0.0,58,0.00,,,0.03,weatherlink.com 1.10,2017-05-27 20:18:00,
2017-05-27 13:33:00,70.2,54.0,29.99,NNE,20,0.0,0.0,56,0.00,,,0.03,weatherlink.com 1.10,2017-05-27 20:33:00,
2017-05-27 13:48:00,71.1,54.0,29.99,NNE,20,0.0,0.0,56,0.00,,,0.03,weatherlink.com 1.10,2017-05-27 20:48:00,
2017-05-27 14:03:00,70.6,53.0,29.99,NNE,20,0.0,0.0,54,0.00,,,0.03,weatherlink.com 1.10,2017-05-27 21:03:00,
2017-05-27 14:18:00,70.5,53.0,29.98,NNE,20,0.0,0.0,55,0.00,,,0.03,weatherlink.com 1.10,2017-05-27 21:18:00,
2017-05-27 14:33:00,70.3,54.0,29.98,NNE,20,0.0,0.0,57,0.00,,,0.03,weatherlink.com 1.10,2017-05-27 21:33:00,
2017-05-27 14:48:00,70.4,54.0,29.98,NNE,19,0.0,0.0,56,0.00,,,0.03,weatherlink.com 1.10,2017-05-27 21:48:00,
2017-05-27 15:03:00,70.9,54.0,29.98,NNE,19,0.0,0.0,56,0.00,,,0.03,weatherlink.com 1.10,2017-05-27 22:03:00,
2017-05-27 15:18:00,71.7,54.0,29.98,NNE,19,0.0,0.0,54,0.00,,,0.03,weatherlink.com 1.10,2017-05-27 22:18:00,
2017-05-27 15:33:00,72.1,54.0,29.98,NNE,19,0.0,0.0,53,0.00,,,0.03,weatherlink.com 1.10,2017-05-27 22:33:00,
2017-05-27 15:48:00,71.4,53.0,29.98,NNE,20,0.0,0.0,53,0.00,,,0.03,weatherlink.com 1.10,2017-05-27 22:48:00,
2017-05-27 16:03:00,71.0,54.0,29.98,NNE,19,0.0,0.0,55,0.00,,,0.03,weatherlink.com 1.10,2017-05-27 23:03:00,
2017-05-27 16:18:00,70.7,53.0,29.98,NNE,20,0.0,0.0,54,0.00,,,0.03,weatherlink.com 1.10,2017-05-27 23:18:00,
2017-05-27 16:33:00,70.0,54.0,29.97,NNE,20,0.0,0.0,57,0.00,,,0.03,weatherlink.com 1.10,2017-05-27 23:33:00,
2017-05-27 16:48:00,70.3,53.0,29.97,NNE,20,0.0,0.0,55,0.00,,,0.03,weatherlink.com 1.10,2017-05-27 23:48:00,
2017-05-27 17:03:00,69.8,53.0,29.97,NNE,20,0.0,0.0,55,0.00,,,0.03,weatherlink.com 1.10,2017-05-28 00:03:00,
2017-05-27 17:18:00,69.5,52.0,29.97,NNE,19,0.0,0.0,55,0.00,,,0.03,weatherlink.com 1.10,2017-05-28 00:18:00,
2017-05-27 17:33:00,69.0,53.0,29.97,NNE,19,0.0,0.0,57,0.00,,,0.03,weatherlink.com 1.10,2017-05-28 00:33:00,
2017-05-27 17:48:00,68.8,52.0,29.97,NNE,19,0.0,0.0,56,0.00,,,0.03,weatherlink.com 1.10,2017-05-28 00:48:00,
2017-05-27 18:03:00,68.9,53.0,29.97,NNE,20,0.0,0.0,57,0.00,,,0.03,weatherlink.com 1.10,2017-05-28 01:03:00,
2017-05-27 18:18:00,69.0,53.0,29.96,NNE,20,0.0,0.0,58,0.00,,,0.03,weatherlink.com 1.10,2017-05-28 01:18:00,
2017-05-27 18:33:00,68.4,53.0,29.97,NNE,20,0.0,0.0,59,0.00,,,0.03,weatherlink.com 1.10,2017-05-28 01:33:00,
2017-05-27 18:48:00,67.9,52.0,29.97,NNE,20,0.0,0.0,58,0.00,,,0.03,weatherlink.com 1.10,2017-05-28 01:48:00,
2017-05-27 19:03:00,67.4,52.0,29.97,NNE,19,0.0,0.0,59,0.00,,,0.03,weatherlink.com 1.10,2017-05-28 02:03:00,
2017-05-27 19:18:00,67.0,53.0,29.96,NNE,19,0.0,0.0,61,0.00,,,0.03,weatherlink.com 1.10,2017-05-28 02:18:00,
2017-05-27 19:33:00,66.5,53.0,29.96,NNE,19,0.0,0.0,62,0.00,,,0.03,weatherlink.com 1.10,2017-05-28 02:33:00,
2017-05-27 19:48:00,65.6,53.0,29.97,NNE,20,0.0,0.0,64,0.00,,,0.03,weatherlink.com 1.10,2017-05-28 02:48:00,
2017-05-27 20:03:00,64.3,53.0,29.97,NNE,20,0.0,0.0,66,0.00,,,0.03,weatherlink.com 1.10,2017-05-28 03:03:00,
2017-05-27 20:18:00,63.2,52.0,29.96,NNE,20,0.0,0.0,68,0.00,,,0.03,weatherlink.com 1.10,2017-05-28 03:18:00,
2017-05-27 20:33:00,61.9,52.0,29.96,NNE,19,0.0,0.0,71,0.00,,,0.03,weatherlink.com 1.10,2017-05-28 03:33:00,
2017-05-27 20:48:00,61.0,52.0,29.97,NNE,19,0.0,0.0,72,0.00,,,0.03,weatherlink.com 1.10,2017-05-28 03:48:00,
2017-05-27 21:03:00,60.2,52.0,29.97,NNE,20,0.0,0.0,73,0.00,,,0.03,weatherlink.com 1.10,2017-05-28 04:03:00,
2017-05-27 21:18:00,59.6,51.0,29.97,NNE,19,0.0,0.0,73,0.00,,,0.03,weatherlink.com 1.10,2017-05-28 04:18:00,